TimeAKST,TemperatureF,Dew PointF,Humidity,Sea Level PressureIn,VisibilityMPH,Wind Direction,Wind SpeedMPH,Gust SpeedMPH,PrecipitationIn,Events,Conditions,WindDirDegrees,DateUTC
12:53 AM,33.1,33.1,100,29.69,10.0,Calm,Calm,-,N/A,,Clear,0,2013-01-06 09:53:00
1:53 AM,33.1,33.1,100,29.70,10.0,Calm,Calm,-,N/A,,Clear,0,2013-01-06 10:53:00
3:53 AM,34.0,32.0,92,29.68,10.0,East,3.5,-,N/A,,Clear,90,2013-01-06 12:53:00
4:53 AM,33.1,32.0,96,29.67,10.0,East,3.5,-,N/A,,Clear,100,2013-01-06 13:53:00
5:53 AM,30.9,30.9,100,29.67,10.0,Calm,Calm,-,N/A,,Clear,0,2013-01-06 14:53:00
6:53 AM,30.9,30.0,96,29.66,7.0,NNE,4.6,-,N/A,,Clear,30,2013-01-06 15:53:00
7:53 AM,33.1,32.0,96,29.66,10.0,Calm,Calm,-,N/A,,Overcast,0,2013-01-06 16:53:00
8:53 AM,33.1,33.1,100,29.67,10.0,East,3.5,-,N/A,,Mostly Cloudy,90,2013-01-06 17:53:00
9:53 AM,36.0,33.1,89,29.68,10.0,East,5.8,-,N/A,,Overcast,90,2013-01-06 18:53:00
10:53 AM,39.0,33.1,79,29.65,10.0,ESE,4.6,-,N/A,,Overcast,110,2013-01-06 19:53:00
11:53 AM,37.9,36.0,93,29.65,10.0,Calm,Calm,-,N/A,,Overcast,0,2013-01-06 20:53:00
12:53 PM,41.0,34.0,76,29.63,10.0,SE,9.2,-,N/A,,Mostly Cloudy,140,2013-01-06 21:53:00
1:53 PM,39.0,36.0,89,29.62,10.0,NNW,5.8,-,N/A,,Mostly Cloudy,340,2013-01-06 22:53:00
2:53 PM,37.9,35.1,89,29.61,10.0,Calm,Calm,-,N/A,,Overcast,0,2013-01-06 23:53:00
3:53 PM,39.0,35.1,86,29.58,10.0,Calm,Calm,-,N/A,,Overcast,0,2013-01-07 00:53:00
4:53 PM,39.0,36.0,89,29.55,10.0,Calm,Calm,-,N/A,,Mostly Cloudy,0,2013-01-07 01:53:00
5:53 PM,42.1,32.0,67,29.52,10.0,ESE,10.4,-,N/A,,Overcast,120,2013-01-07 02:53:00
6:53 PM,42.1,32.0,67,29.48,10.0,ESE,13.8,-,N/A,,Overcast,110,2013-01-07 03:53:00
7:53 PM,42.1,32.0,67,29.44,10.0,ESE,11.5,-,0.01,,Overcast,110,2013-01-07 04:53:00
8:53 PM,41.0,33.1,73,29.42,10.0,East,12.7,-,0.00,Rain,Light Rain,100,2013-01-07 05:53:00
9:53 PM,41.0,33.1,73,29.38,10.0,ESE,15.0,-,0.00,,Overcast,110,2013-01-07 06:53:00
10:53 PM,41.0,33.1,73,29.37,9.0,East,16.1,24.2,0.01,Rain,Light Rain,100,2013-01-07 07:53:00
11:53 PM,41.0,34.0,76,29.34,10.0,ESE,16.1,25.3,0.02,Rain,Light Rain,110,2013-01-07 08:53:00